TimeAEST,TemperatureF,Dew PointF,Humidity,Sea Level PressureIn,VisibilityMPH,Wind Direction,Wind SpeedMPH,Gust SpeedMPH,PrecipitationIn,Events,Conditions,WindDirDegrees,DateUTC
12:00 AM,74,64,63,29.94,,ENE,10.4,,,,,60,2012-11-08 14:00:00
12:00 AM,75.2,64.4,69,29.95,-9999.0,ENE,10.4,-,N/A,,Unknown,60,2012-11-08 14:00:00
12:30 AM,75.2,64.4,69,29.92,-9999.0,NE,10.4,-,N/A,,Unknown,50,2012-11-08 14:30:00
1:00 AM,75.2,64.4,69,29.92,-9999.0,ENE,8.1,-,N/A,,Unknown,60,2012-11-08 15:00:00
1:30 AM,75.2,64.4,69,29.92,-9999.0,East,15.0,-,N/A,,Unknown,80,2012-11-08 15:30:00
2:00 AM,75.2,62.6,65,29.92,-9999.0,East,16.1,-,N/A,,Unknown,90,2012-11-08 16:00:00
2:30 AM,75.2,62.6,65,29.89,-9999.0,East,15.0,-,N/A,,Unknown,90,2012-11-08 16:30:00
3:00 AM,74,62,57,29.90,,East,12.7,,,,,80,2012-11-08 17:00:00
3:00 AM,75.2,62.6,65,29.89,-9999.0,East,12.7,-,N/A,,Unknown,80,2012-11-08 17:00:00
3:30 AM,73.4,62.6,69,29.89,-9999.0,ENE,12.7,-,N/A,,Unknown,60,2012-11-08 17:30:00
4:00 AM,73.4,60.8,65,29.92,-9999.0,ENE,12.7,-,N/A,,Unknown,70,2012-11-08 18:00:00
4:30 AM,73.4,60.8,65,29.92,-9999.0,NE,10.4,-,N/A,,Unknown,50,2012-11-08 18:30:00
5:00 AM,73.4,59.0,61,29.92,-9999.0,NE,8.1,-,N/A,,Unknown,50,2012-11-08 19:00:00
5:30 AM,73.4,60.8,65,29.95,-9999.0,ENE,8.1,-,N/A,,Unknown,60,2012-11-08 19:30:00
6:00 AM,74,62,56,29.94,,NE,6.9,,,,,50,2012-11-08 20:00:00
6:00 AM,73.4,60.8,65,29.95,-9999.0,NE,6.9,-,N/A,,Unknown,50,2012-11-08 20:00:00
6:30 AM,77.0,59.0,54,29.95,-9999.0,NE,8.1,-,N/A,,Unknown,50,2012-11-08 20:30:00
7:00 AM,78.8,60.8,54,29.95,-9999.0,NE,10.4,-,N/A,,Unknown,50,2012-11-08 21:00:00
7:30 AM,78.8,62.6,57,29.98,-9999.0,East,12.7,-,N/A,,Unknown,80,2012-11-08 21:30:00
8:00 AM,78.8,60.8,54,29.98,-9999.0,East,13.8,-,N/A,,Unknown,80,2012-11-08 22:00:00
8:30 AM,80.6,62.6,54,29.98,-9999.0,East,13.8,-,N/A,,Unknown,90,2012-11-08 22:30:00
9:00 AM,81,61,41,29.99,,East,15.0,,,,,100,2012-11-08 23:00:00
9:00 AM,80.6,60.8,51,29.98,-9999.0,East,15.0,-,N/A,,Unknown,100,2012-11-08 23:00:00
9:30 AM,82.4,60.8,48,29.98,-9999.0,ESE,13.8,-,N/A,,Unknown,110,2012-11-08 23:30:00
10:00 AM,80.6,62.6,54,29.98,-9999.0,East,15.0,-,N/A,,Unknown,100,2012-11-09 00:00:00
10:30 AM,80.6,62.6,54,29.98,-9999.0,East,15.0,-,N/A,,Unknown,100,2012-11-09 00:30:00
11:00 AM,80.6,62.6,54,29.98,-9999.0,East,16.1,-,N/A,,Unknown,100,2012-11-09 01:00:00
11:30 AM,80.6,60.8,51,29.98,-9999.0,East,17.3,-,N/A,,Unknown,100,2012-11-09 01:30:00
12:00 PM,81,60,39,29.96,,East,17.3,,,,,100,2012-11-09 02:00:00
12:00 PM,80.6,60.8,51,29.95,-9999.0,East,17.3,-,N/A,,Unknown,100,2012-11-09 02:00:00
12:30 PM,80.6,64.4,58,29.95,-9999.0,East,17.3,-,N/A,,Unknown,100,2012-11-09 02:30:00
1:00 PM,78.8,64.4,61,29.95,-9999.0,East,18.4,-,N/A,,Unknown,100,2012-11-09 03:00:00
1:30 PM,78.8,64.4,61,29.92,-9999.0,East,20.7,-,N/A,,Unknown,100,2012-11-09 03:30:00
2:00 PM,78.8,62.6,57,29.92,-9999.0,East,18.4,-,N/A,,Unknown,100,2012-11-09 04:00:00
2:30 PM,80.6,62.6,54,29.92,-9999.0,East,17.3,-,N/A,,Unknown,90,2012-11-09 04:30:00
3:00 PM,80,61,43,29.91,,East,19.6,,,,,90,2012-11-09 05:00:00
3:00 PM,78.8,60.8,54,29.92,-9999.0,East,19.6,-,N/A,,Unknown,90,2012-11-09 05:00:00
3:30 PM,78.8,62.6,57,29.92,-9999.0,East,18.4,-,N/A,,Unknown,90,2012-11-09 05:30:00
4:00 PM,78.8,62.6,57,29.92,-9999.0,East,17.3,-,N/A,,Unknown,90,2012-11-09 06:00:00
4:30 PM,78.8,66.2,65,29.92,-9999.0,East,15.0,-,N/A,,Unknown,90,2012-11-09 06:30:00
5:00 PM,77.0,66.2,69,29.92,-9999.0,East,16.1,-,N/A,,Unknown,90,2012-11-09 07:00:00
5:30 PM,77.0,66.2,69,29.92,-9999.0,NE,17.3,-,N/A,,Unknown,50,2012-11-09 07:30:00
6:00 PM,76,64,59,29.94,,NNE,13.8,,,,,30,2012-11-09 08:00:00
6:00 PM,75.2,64.4,69,29.95,-9999.0,NNE,13.8,-,N/A,,Unknown,30,2012-11-09 08:00:00
6:30 PM,75.2,62.6,65,29.95,-9999.0,NNE,9.2,-,N/A,,Unknown,30,2012-11-09 08:30:00
7:00 PM,75.2,60.8,61,29.95,-9999.0,East,11.5,-,N/A,,Unknown,80,2012-11-09 09:00:00
7:30 PM,75.2,62.6,65,29.98,-9999.0,NNE,8.1,-,N/A,,Unknown,30,2012-11-09 09:30:00
8:00 PM,75.2,64.4,69,29.98,-9999.0,NE,8.1,-,N/A,,Unknown,50,2012-11-09 10:00:00
8:30 PM,75.2,64.4,69,29.98,-9999.0,ENE,8.1,-,N/A,,Unknown,70,2012-11-09 10:30:00
9:00 PM,75,64,59,29.98,,ENE,9.2,,,,,60,2012-11-09 11:00:00
9:00 PM,75.2,64.4,69,29.98,-9999.0,ENE,9.2,-,N/A,,Unknown,60,2012-11-09 11:00:00
9:30 PM,75.2,64.4,69,29.98,-9999.0,ENE,9.2,-,N/A,,Unknown,60,2012-11-09 11:30:00
10:00 PM,75.2,64.4,69,29.98,-9999.0,NE,6.9,-,N/A,,Unknown,50,2012-11-09 12:00:00
10:30 PM,75.2,64.4,69,29.98,-9999.0,ENE,5.8,-,N/A,,Unknown,70,2012-11-09 12:30:00
11:00 PM,75.2,64.4,69,29.98,-9999.0,NE,4.6,-,N/A,,Unknown,50,2012-11-09 13:00:00
11:30 PM,73.4,64.4,73,29.98,-9999.0,East,5.8,-,N/A,,Unknown,80,2012-11-09 13:30:00